SCP
0 0 0 0 0 0 0 0 0 1 1 1 1 1 0 0 0 0 0 0 0 0 0 0 0 0 0 0 0 0 0 0 0 0 0 0 0 0 0 0 0 0 0 0
0 0 0 0 0 0 0 0 0 1 1 1 1 0 0 0 0 0 0 0 0 0 0 0 0 0 0 0 0 0 0 0 0 0 0 0 0 0 0 0 0 0 0 0
0 0 0 0 0 0 0 0 0 1 1 1 1 0 0 0 0 0 0 0 0 0 0 0 0 0 0 0 0 0 0 0 0 0 0 0 0 0 0 0 0 0 0 0
0 0 0 0 0 0 0 0 0 0 1 1 1 0 0 0 0 0 0 0 0 0 0 0 0 0 0 0 0 0 0 0 0 0 0 0 0 0 0 0 0 0 0 0
0 0 0 0 0 0 0 0 0 0 1 1 1 0 0 0 0 0 0 0 0 0 0 0 0 0 0 0 0 0 0 0 0 0 0 0 0 0 0 0 0 0 0 0
0 0 0 0 0 0 0 0 0 0 1 1 0 0 0 0 0 0 0 0 0 0 0 0 0 0 0 0 0 0 0 0 0 0 0 0 0 0 0 0 0 0 0 0
0 0 0 0 0 0 0 0 0 0 0 0 0 0 0 0 0 0 0 0 0 0 0 0 0 0 0 0 0 0 0 0 0 0 0 0 0 0 0 0 0 0 0 0
0 0 0 0 0 0 0 0 0 0 0 0 0 0 0 0 0 0 0 0 0 0 0 0 0 0 0 0 0 0 0 0 0 0 0 0 0 0 0 0 0 0 0 0
0 0 0 0 0 0 0 0 0 0 0 0 0 0 0 0 0 0 0 0 0 0 0 0 0 0 0 0 0 0 0 0 0 0 0 0 0 0 0 0 0 0 0 0
0 0 0 0 0 0 0 0 0 0 0 0 0 0 0 0 0 0 0 0 0 0 0 0 0 0 0 0 0 0 0 0 0 0 0 0 0 0 0 0 0 0 0 0
0 0 0 0 0 0 0 0 0 0 0 0 0 0 0 0 0 0 0 0 0 0 0 0 0 0 0 0 0 0 0 0 0 0 0 0 0 0 0 0 0 0 0 0
0 0 0 0 0 0 0 0 0 0 0 0 0 0 0 0 0 0 0 0 0 0 0 0 0 0 0 0 0 0 0 0 0 0 0 0 0 0 0 0 0 0 0 0
0 0 0 0 0 0 0 0 0 0 0 0 0 0 0 0 0 0 0 0 0 0 0 0 0 0 0 0 0 0 0 0 0 0 0 0 0 0 0 0 0 0 0 0
0 0 0 0 0 0 0 0 0 0 0 0 0 0 0 0 0 0 0 0 0 0 0 0 0 0 0 0 0 0 0 0 0 0 0 0 0 0 0 0 0 0 0 0
0 0 0 0 0 0 0 0 0 0 0 0 0 0 0 0 0 0 0 0 0 0 0 0 0 0 0 0 0 0 0 0 0 0 0 0 0 0 0 0 0 0 0 0
0 0 0 0 0 0 0 0 0 0 0 0 0 0 0 0 0 0 0 0 0 0 0 0 0 0 0 0 0 0 0 0 0 0 0 0 0 0 0 0 0 0 0 0
0 0 0 0 0 0 0 0 0 0 0 0 0 0 0 0 0 0 0 0 0 0 0 0 0 0 0 0 0 0 0 0 0 0 0 0 0 0 0 0 0 0 0 0
0 0 0 0 0 0 0 0 0 0 0 0 0 0 0 0 0 0 0 0 0 0 0 0 0 0 0 0 0 0 0 0 0 0 0 0 0 0 0 0 0 0 0 0
0 0 0 0 0 0 0 0 0 0 0 0 0 0 0 0 0 0 0 0 0 0 0 0 0 0 0 0 0 0 0 0 0 0 0 0 0 0 0 0 0 0 0 0
0 0 0 0 0 0 0 0 0 0 0 0 0 0 0 0 0 0 0 0 0 0 0 0 0 0 0 0 0 0 0 0 0 0 0 0 0 0 0 0 0 0 0 0
0 0 0 0 0 0 0 0 0 0 0 0 0 0 0 0 0 0 0 0 0 0 0 0 0 0 0 0 0 0 0 0 0 0 0 0 0 0 0 0 0 0 0 0
0 0 0 0 0 0 0 0 0 0 0 0 0 0 0 0 0 0 0 0 0 0 0 0 0 0 0 0 0 0 0 0 0 0 0 0 0 0 0 0 0 0 0 0
0 0 0 0 0 0 0 0 0 0 0 0 0 0 0 0 0 0 0 0 0 0 0 0 0 0 0 0 0 0 0 0 0 0 0 0 0 0 0 0 0 0 0 0
0 0 0 0 0 0 0 0 0 0 0 0 0 0 0 0 0 0 0 0 0 0 0 0 0 0 0 0 0 0 0 0 0 0 0 0 0 0 0 0 0 0 0 0
1 1 0 0 0 0 0 0 0 0 0 0 0 0 0 0 0 0 0 0 0 0 0 0 0 0 0 0 0 0 0 0 0 0 0 0 0 0 0 0 0 0 0 0
1 1 1 0 0 0 0 0 0 0 0 0 0 0 0 0 0 0 0 0 0 0 0 0 0 0 0 0 0 0 0 0 0 0 0 0 0 0 0 0 0 0 0 0
1 1 1 0 0 0 0 0 0 0 0 0 0 0 0 0 0 0 0 0 0 0 0 0 0 0 0 0 0 0 0 0 0 0 0 0 0 0 0 0 0 0 0 0
Wind_Speed
7 5 6 6 6 6 7 8 8 3 2 7 10 11 12 12 12 12 11 10 10 10 10 10 11 11 11 12 12 13 14 14 14 12 12 12 11 11 10 9 9 8 8 8
7 5 5 6 5 4 3 3 2 2 3 8 11 10 11 13 13 12 12 11 11 11 11 10 10 11 11 12 11 12 13 13 12 12 11 11 11 10 9 9 8 8 8 8
6 4 7 6 1 1 0 1 1 1 5 12 11 11 12 13 13 13 13 12 11 11 10 10 10 10 11 11 11 12 12 12 12 11 11 10 10 10 9 9 8 8 8 9
5 5 6 3 3 1 2 1 1 5 10 11 11 10 9 10 12 13 13 12 12 11 11 10 11 11 11 11 11 11 11 11 11 10 10 9 9 9 9 8 7 7 8 8
5 5 3 4 4 2 1 2 3 8 12 12 14 12 8 8 10 12 12 11 11 12 12 11 11 11 11 11 10 10 10 10 10 9 9 9 9 8 7 7 7 7 7 7
6 7 3 4 5 2 3 4 7 10 13 15 13 8 7 10 13 13 12 11 12 12 12 11 11 10 11 11 10 10 9 9 9 8 8 8 8 7 7 6 6 6 7 7
7 6 1 6 4 4 5 5 10 11 13 13 7 7 14 15 14 14 13 13 12 12 11 11 11 10 10 10 10 9 9 9 8 8 7 7 6 6 5 5 6 6 6 6
4 5 3 5 3 1 5 8 10 11 11 11 13 17 17 16 15 15 14 13 12 11 11 10 10 10 10 10 9 9 8 8 8 7 6 6 6 5 5 5 5 5 5 5
4 5 6 3 4 5 6 10 11 12 13 14 16 17 17 16 15 15 14 13 11 12 11 10 9 9 10 10 9 8 8 8 7 7 6 5 5 5 4 3 2 3 4 4
3 6 6 5 5 6 9 11 12 14 15 16 17 17 17 15 15 14 13 12 11 12 12 10 9 9 9 9 8 8 7 7 6 6 6 5 3 3 3 3 3 3 3 3
4 8 8 6 7 10 12 13 15 15 15 16 18 18 17 15 15 13 12 11 11 11 11 11 10 9 9 8 7 7 7 5 5 5 6 5 6 6 5 7 7 5 4 3
3 9 7 10 10 13 14 15 16 16 15 16 16 17 17 14 13 13 12 11 11 11 11 11 10 9 8 7 7 6 6 5 4 4 4 4 6 6 8 7 5 6 8 7
8 11 13 14 14 14 15 16 16 16 16 16 16 16 16 14 13 13 12 12 11 11 11 10 10 9 8 7 6 4 4 3 3 3 4 3 3 4 6 5 3 2 2 3
16 17 17 15 14 15 17 17 16 16 16 16 15 15 15 14 14 13 12 11 11 11 11 10 9 8 8 7 6 5 4 4 2 2 2 3 2 2 3 4 6 6 5 3
14 13 16 17 16 17 17 17 17 16 16 15 15 15 15 14 14 12 11 11 11 11 11 10 9 8 7 7 6 5 4 3 3 2 2 3 2 2 2 3 3 4 5 6
16 18 19 19 18 18 18 18 17 17 16 15 15 15 14 14 13 12 11 11 10 10 9 9 8 8 7 7 6 5 3 4 1 2 3 3 3 2 2 2 2 2 2 3
21 20 20 20 19 18 17 16 16 17 16 16 15 15 15 14 13 12 11 10 9 9 8 8 8 8 8 7 6 4 5 6 5 3 2 3 2 3 2 2 2 2 3 5
17 18 19 19 18 18 17 17 16 17 16 16 16 15 14 14 13 12 11 10 9 9 8 8 7 7 7 6 4 3 4 4 4 3 3 2 2 3 3 3 3 2 3 5
17 19 19 18 18 17 17 16 17 16 16 15 15 14 13 12 12 12 11 10 10 9 8 7 5 5 6 5 3 4 4 4 3 3 3 4 3 3 3 3 3 2 2 2
18 19 19 19 18 17 17 16 16 15 15 15 15 14 13 12 12 12 10 8 6 6 8 8 8 6 6 6 5 4 4 4 3 4 4 4 4 3 3 3 3 2 2 1
20 20 20 19 18 18 17 17 16 16 15 15 14 14 13 12 12 11 9 8 8 7 8 7 6 6 6 5 6 4 4 3 3 3 4 4 4 3 3 3 3 3 2 1
19 19 20 19 18 17 16 15 15 16 15 14 14 14 13 12 11 9 7 5 9 7 7 8 7 5 4 4 6 4 4 4 3 4 4 4 4 4 4 3 3 3 2 1
18 18 18 18 18 17 17 15 16 15 15 14 14 14 13 11 9 8 8 7 8 8 7 6 9 9 5 7 4 4 4 4 4 4 4 4 4 4 4 4 3 3 2 2
18 18 18 17 17 17 17 16 15 13 14 14 13 13 12 10 8 7 7 8 8 8 6 9 10 8 8 6 4 4 4 4 5 5 5 5 4 4 4 4 3 3 3 3
18 18 18 18 17 15 15 16 15 15 15 12 13 14 11 8 8 7 8 10 10 9 8 10 10 9 9 6 5 4 4 4 4 4 5 4 4 5 4 4 4 3 3 3
17 15 15 15 13 12 13 13 12 12 12 12 11 11 10 8 9 9 7 10 12 9 8 9 10 10 9 7 5 4 4 5 6 6 5 5 5 5 4 5 6 5 4 4
17 14 13 13 13 13 13 12 12 12 12 12 12 11 11 10 9 10 10 9 10 10 9 8 9 10 8 7 6 5 5 5 6 6 6 6 5 5 5 6 5 5 5 5
Wind_Direction
282 284 278 281 287 284 270 281 289 299 157 152 147 140 136 133 129 125 119 114 110 105 100 98 97 95 95 96 98 100 100 97 96 97 98 97 94 92 91 90 91 91 93 93
260 250 254 267 276 278 281 290 282 145 104 124 130 133 138 140 139 135 129 124 119 115 110 106 105 104 102 101 101 102 101 101 102 102 100 98 97 95 93 91 92 93 92 91
266 255 259 252 276 270 220 27 251 256 124 135 140 147 149 148 145 139 135 131 125 119 115 112 108 107 106 105 105 104 104 106 106 106 103 102 102 100 98 98 96 93 91 89
278 263 256 74 74 89 99 65 18 97 129 145 138 130 132 142 143 140 138 135 131 126 121 116 114 113 112 112 111 110 111 111 111 109 106 105 103 101 100 99 97 95 91 90
274 272 266 143 159 186 236 105 105 126 130 127 121 114 115 129 134 135 135 134 130 128 126 124 123 122 121 118 116 115 114 114 114 113 112 111 107 104 103 103 101 101 95 93
269 285 296 95 115 149 231 150 133 140 142 144 151 146 138 138 134 132 132 132 131 131 129 128 129 130 127 124 123 119 118 115 113 110 108 106 106 106 104 107 107 103 96 90
268 275 59 83 123 204 262 92 140 149 151 159 163 117 130 137 135 135 136 137 137 137 134 133 136 134 129 126 122 119 117 115 112 109 108 106 107 106 109 109 105 100 105 102
265 274 80 89 171 321 60 111 137 141 142 132 113 116 128 134 136 137 137 139 139 136 132 134 137 136 130 124 122 121 118 116 113 111 107 106 109 112 112 116 125 122 121 122
3 42 74 72 61 73 115 129 133 134 130 128 126 129 132 134 137 139 140 141 140 137 135 137 140 138 131 129 131 128 122 115 108 104 95 99 111 118 124 131 119 119 126 119
128 106 104 101 102 110 120 127 131 132 133 133 131 133 134 135 136 137 139 142 144 141 138 136 138 136 131 134 135 131 124 120 120 115 107 97 88 90 89 85 93 104 98 100
134 126 125 112 112 117 119 123 125 128 131 133 134 136 136 136 139 141 143 145 146 143 141 140 140 139 137 138 141 132 129 128 123 109 99 101 79 49 42 56 33 16 49 68
141 152 141 127 127 128 127 127 128 129 129 133 136 136 136 136 138 140 143 145 144 143 143 144 145 144 141 143 142 141 142 143 135 123 119 122 123 112 58 56 71 54 31 15
109 124 116 124 128 130 128 128 129 130 131 133 135 136 136 136 139 142 144 146 145 145 145 144 146 144 144 146 146 142 132 130 140 133 132 127 120 128 134 130 123 104 59 19
119 119 123 129 128 129 127 126 125 125 127 130 133 135 135 137 141 144 145 146 146 147 146 146 149 149 150 151 153 154 153 145 162 142 137 124 119 123 129 140 149 151 153 141
138 131 129 128 128 129 130 130 128 128 129 132 136 137 139 141 142 141 143 145 147 147 150 154 154 152 154 155 161 170 173 156 155 138 145 136 139 138 124 119 125 133 140 143
130 126 131 134 135 138 139 138 135 135 137 139 140 141 142 140 139 140 145 149 150 148 150 154 156 159 162 163 167 170 148 91 179 174 159 156 156 152 142 134 127 123 130 127
142 144 145 144 145 146 145 142 140 140 142 143 142 142 142 141 142 145 149 150 147 145 149 153 156 159 163 168 183 183 163 148 185 211 173 157 155 150 148 143 135 136 111 76
151 148 149 148 148 146 144 142 142 143 144 143 142 145 147 149 149 147 146 145 144 144 146 148 149 159 161 164 182 180 164 167 177 167 155 150 153 155 150 146 141 142 133 137
145 145 145 146 146 144 144 144 145 144 143 146 148 149 150 149 147 147 148 151 152 151 148 140 134 171 157 145 185 184 176 169 164 160 149 141 186 165 156 156 152 151 140 142
144 144 145 146 147 146 145 145 144 144 148 150 150 150 151 151 151 153 157 161 159 145 148 151 171 174 165 161 231 198 171 176 168 161 164 172 168 160 160 157 156 153 151 146
147 147 148 149 148 148 148 148 148 149 151 154 154 154 152 153 157 159 170 160 145 146 148 153 185 177 176 157 216 206 167 168 172 172 171 170 162 159 159 161 160 158 158 159
150 152 152 150 149 149 149 151 152 152 154 157 158 156 155 159 163 169 177 153 145 154 175 176 177 137 140 192 200 184 167 166 173 169 172 169 165 166 164 166 164 163 167 159
153 153 152 152 152 150 152 155 156 157 159 161 161 162 164 166 169 172 166 157 156 173 201 159 124 133 170 223 200 179 170 176 180 173 175 180 177 174 170 174 173 173 173 179
153 154 153 153 151 154 158 159 158 160 163 164 164 166 168 168 173 179 148 139 144 167 188 128 142 166 219 230 199 188 176 179 185 182 179 181 179 179 177 182 185 183 178 193
155 154 154 156 158 161 160 160 159 163 167 168 166 170 177 179 174 166 153 155 159 184 176 150 170 191 223 222 201 196 190 177 179 182 177 183 191 188 185 191 196 199 199 201
156 158 159 165 163 161 162 165 167 169 172 169 170 173 177 177 174 163 166 169 170 194 191 167 177 199 220 215 201 203 192 167 184 208 202 197 202 199 197 203 206 213 212 210
158 157 160 166 166 169 168 170 171 172 175 174 171 173 176 177 177 175 177 175 173 188 196 186 185 196 206 207 201 198 204 201 202 206 204 207 210 209 206 209 217 213 215 212